Погода в Акуше

Россия / Республика Дагестан     42°16′34″N   47°20′23″E
темп.,
°C
ветер,
м/с
пор.,
м/с
влажн.,
%
обл.,
%
осадки,
мм/ч
давл.,
гПа
погр.,
м
26 июня, вс
вс2600:00+12юз4489100 1.0 101180
03:00+11ююз1186100 3.8 101114
06:00+14ю228291 0.3 101068
09:00+18в2265100 0.3 1007625
12:00+20св226679 2.3 1006834
15:00+20всв337297 7.3 1006415
18:00+17св2286100 3.7 1006190
21:00+14юз1198100 6.8 101066
27 июня, пн
пн2700:00+13з119763 0.1 101034
03:00+12зюз11920 0.1 101012
06:00+14ююз11780 0.0 101158
09:00+19ссв21680 0.0 1009617
12:00+22ссв326536 0.1 10091295
15:00+19св337865 2.9 1010709
18:00+16ссв018939 2.8 1012181
21:00+13з1193100 3.3 101214
28 июня, вт
вт2800:00+13зюз2190100 0.1 101114
03:00+12зюз22885 0.1 101114
06:00+14з22830 0.0 101192
09:00+18ссз33770 0.0 1010505
12:00+20с326937 0.2 10101092
15:00+17ссв337770 0.8 1012776
18:00+15с238297 0.2 1014278
21:00+12сз12896 0.2 101623
29 июня, ср
ср2900:00+11юз119135 0.0 101611
03:00+11ю118923 0.0 101510
06:00+14юв118525 0.0 1015100
09:00+16всв227368 0.1 1015858
12:00+16вюв227598 0.8 1015668
15:00+17всв127189 2.3 1015926
18:00+16в127744 0.3 1015316
21:00+11ю229287 1.8 101733
30 июня, чт
чт3000:00+11ю228874 0.2 101712
03:00+11ю118751 0.2 101610
06:00+13ю11830 0.0 101585
09:00+17св217421 0.0 1014719
12:00+17всв227999 0.6 1013717
15:00+14всв2296100 2.8 1014412
18:00+13всв1198100 3.3 1016271
21:00+12ссз129996 5.2 1017130